SCP
0 0 0 0 0 0 0 0 0 0 0 0 0 0 0 0 0 0 0 0 0 0 0 0 0 0 0 0 0 0 0 0 0 0 0 -0 0 0 0 0 0 0 -0
0 0 0 0 0 0 0 0 0 0 0 0 0 0 0 0 0 0 0 0 0 0 0 0 0 0 0 0 0 0 0 0 0 0 0 0 0 0 -0 -0 0 0 0
0 0 0 0 0 0 0 0 0 0 0 0 0 0 0 0 0 0 0 0 0 0 0 0 0 0 0 0 0 0 0 0 0 0 0 0 -0 -0 -0 -0 0 0 0
0 0 0 0 0 0 0 0 0 0 0 0 0 0 0 0 0 0 0 0 0 0 0 0 0 0 0 0 0 0 0 0 0 0 0 0 0 0 -0 -0 -0 0 0
0 0 0 0 0 0 0 0 0 0 0 0 0 0 0 0 0 0 0 0 0 0 0 0 0 0 0 0 0 0 0 0 0 0 0 0 0 0 0 0 0 0 0
0 0 0 0 0 0 0 0 0 0 0 0 0 0 0 0 0 0 0 0 0 0 0 0 0 0 0 0 0 0 0 0 0 0 0 0 0 0 0 0 0 0 0
0 0 0 0 0 0 0 0 0 0 0 0 0 0 0 0 0 0 0 0 0 0 0 0 0 0 0 0 0 0 0 0 0 0 0 0 0 0 0 0 0 0 0
0 0 0 0 0 0 0 0 0 0 0 0 0 0 0 0 0 0 0 0 0 0 0 0 0 0 0 0 0 0 0 0 0 0 0 0 0 0 0 0 0 0 0
0 0 0 0 0 0 0 0 0 0 0 0 0 0 0 0 0 0 0 0 0 0 0 0 0 0 0 0 0 0 0 0 0 0 0 0 0 0 0 0 0 0 0
0 0 0 0 0 0 0 0 0 0 0 0 0 0 0 0 0 0 0 0 0 0 0 0 0 0 0 0 0 0 0 0 0 0 0 -0 -0 -0 0 0 0 0 0
0 0 0 0 0 0 0 0 0 0 0 0 0 0 0 0 0 0 0 0 0 0 0 0 0 0 0 0 0 0 -0 0 0 0 0 0 0 0 0 0 0 0 0
0 0 0 0 0 0 0 0 0 0 0 0 0 0 0 0 0 0 0 0 0 0 0 0 0 0 0 0 0 -0 -0 -0 0 -0 0 0 0 0 0 0 0 0 0
0 0 0 0 0 0 0 0 0 0 0 0 0 0 0 0 0 0 0 0 0 0 0 0 0 0 0 0 -0 -0 -0 0 0 -0 0 0 0 0 0 0 0 0 -0
0 0 0 0 0 0 0 0 0 0 0 0 0 0 0 0 0 0 0 0 0 0 0 0 0 0 0 -0 -0 0 0 -0 -0 -0 0 0 0 0 0 0 0 0 0
0 0 0 0 0 0 0 0 0 0 0 0 0 0 0 0 0 0 0 0 0 0 0 0 0 0 -0 -0 -0 0 0 -0 -0 -0 0 0 0 0 0 0 0 0 -0
0 0 0 0 0 0 0 0 0 0 0 0 0 0 0 0 0 0 0 0 0 0 0 0 0 -0 -0 -0 -0 0 0 -0 -0 0 0 0 0 0 0 0 0 0 0
0 0 0 0 0 0 0 0 0 0 0 0 0 0 0 0 0 0 0 0 0 0 0 -0 -0 -0 -0 -0 -0 0 0 -0 -0 -0 -0 -0 0 0 0 0 0 0 0
0 0 0 0 0 0 0 0 0 0 0 0 0 0 0 0 0 0 0 0 0 0 -0 -0 -0 -0 -0 -0 -0 0 -0 -0 -0 -0 -0 -0 -0 0 0 0 0 0 0
0 0 0 0 0 0 0 0 0 0 0 0 0 0 0 0 0 0 0 0 0 0 0 -0 -0 -0 -0 -0 -0 0 0 0 -0 -0 -0 0 0 0 0 0 0 0 0
0 0 0 0 0 0 0 0 0 0 0 0 0 0 0 0 0 0 0 0 0 0 0 -0 -0 -0 -0 -0 -0 0 0 0 0 0 0 0 0 0 0 0 0 0 0
0 0 0 0 0 0 0 0 0 0 0 0 0 0 0 0 0 0 0 0 0 0 0 0 -0 -0 -0 -0 -0 0 0 0 0 0 0 0 0 0 0 0 0 0 0
0 0 0 0 0 0 0 0 0 0 0 0 0 0 0 0 0 0 0 0 0 0 0 0 0 -0 -0 -0 -0 -0 0 0 0 0 0 0 0 0 0 0 0 0 0
0 0 0 0 0 0 0 0 0 0 0 0 0 0 0 0 0 0 0 0 0 0 0 0 0 0 -0 -0 -0 -0 -0 0 0 0 0 0 0 0 0 0 0 0 0
0 0 0 0 0 0 0 0 0 0 0 0 0 0 0 0 0 0 0 0 0 0 0 0 0 0 0 0 0 -0 -0 -0 -0 0 0 0 0 0 0 0 0 0 0
0 0 0 0 0 0 0 0 0 0 0 0 0 0 0 0 0 0 0 0 0 0 0 0 0 0 0 0 0 0 0 0 0 0 0 0 0 0 0 0 0 0 0
0 0 0 0 0 0 0 0 0 0 0 0 0 0 0 0 0 0 0 0 0 0 0 0 0 0 0 0 0 0 0 0 0 0 0 0 0 0 0 0 0 0 0
Wind_Speed_500mb
39 39 48 55 51 52 53 54 59 56 52 56 40 38 39 34 32 34 35 34 35 39 41 34 31 38 38 43 51 56 54 50 57 63 56 50 46 49 45 33 30 32 33
42 50 57 62 59 51 57 57 58 50 53 41 34 29 30 32 34 38 40 41 39 36 35 39 45 50 57 63 63 63 57 56 56 61 57 57 52 47 45 45 47 49 44
47 53 63 57 60 58 57 59 57 49 45 34 33 34 37 32 37 44 44 37 38 44 49 55 62 64 65 63 58 55 54 54 46 53 62 59 61 58 57 59 55 46 40
51 61 58 52 56 57 59 66 53 43 38 31 31 31 38 44 46 43 43 45 51 58 66 69 66 63 58 50 45 45 49 51 51 55 58 59 55 53 50 48 51 51 47
56 56 53 56 60 68 54 53 53 44 28 33 36 34 37 41 41 43 45 51 61 65 58 54 54 51 47 38 42 45 41 45 46 48 49 50 51 54 50 51 51 43 49
39 48 46 53 46 48 42 59 56 33 32 28 28 30 39 37 39 42 53 60 59 53 53 52 50 50 45 42 38 43 48 48 50 49 50 52 56 51 44 40 38 36 43
54 38 41 49 56 40 50 53 67 46 19 23 30 32 32 36 40 49 53 53 51 51 51 55 55 49 51 51 44 43 43 43 45 47 50 51 48 44 40 41 38 39 38
38 47 54 57 58 66 62 60 36 25 27 30 26 26 29 37 45 51 48 47 48 52 55 53 52 58 56 42 41 44 41 38 33 35 43 48 47 46 41 40 43 45 43
51 57 62 62 70 66 55 41 40 18 17 25 22 29 34 43 48 46 49 53 54 54 56 58 60 52 44 39 42 44 45 43 45 47 47 45 42 46 45 47 48 37 41
61 57 61 68 63 49 39 25 8 16 22 19 26 32 41 45 42 46 50 53 59 60 57 56 46 42 37 36 38 40 44 46 40 33 32 37 45 53 53 53 51 52 56
54 57 69 56 43 28 19 11 16 15 20 24 28 37 41 43 43 44 48 54 51 48 49 45 36 31 35 33 35 35 37 34 38 36 35 25 17 17 20 23 27 30 36
61 65 58 56 39 35 24 27 29 14 20 30 33 35 39 40 39 45 50 48 43 43 38 34 33 30 36 39 23 25 24 24 15 15 13 11 13 14 12 13 17 26 27
53 55 59 54 34 21 22 19 15 22 30 31 32 36 35 36 39 44 51 50 49 38 36 30 27 36 34 25 22 22 19 18 18 15 14 14 12 10 8 9 7 12 14
61 50 54 50 25 16 15 17 23 28 26 31 32 32 32 34 40 44 49 51 49 39 37 35 33 32 27 25 24 19 17 16 17 16 13 14 15 16 12 8 8 5 7
48 46 45 19 10 13 15 19 23 25 30 29 28 30 35 35 37 46 41 44 42 37 36 34 30 29 29 29 26 21 22 21 20 17 15 14 13 12 7 3 6 7 9
37 35 27 15 11 17 22 22 20 25 24 24 26 31 32 34 33 43 38 37 43 35 33 28 28 28 30 30 30 25 24 25 23 18 16 16 12 10 8 7 9 10 10
31 18 22 14 15 19 19 21 22 12 16 24 25 27 29 30 36 41 35 39 40 35 30 25 26 28 29 30 28 26 26 25 23 15 16 16 13 11 10 10 10 7 4
22 17 20 21 22 19 16 18 19 22 29 29 25 29 30 32 36 40 36 38 40 37 32 28 25 27 29 30 29 28 27 26 20 13 14 13 13 16 11 11 10 10 7
20 19 20 22 29 23 20 20 19 20 26 28 25 27 30 32 36 37 35 40 42 39 31 29 26 27 27 26 27 25 26 27 23 12 10 13 12 12 12 11 10 9 12
20 23 19 24 30 27 19 19 21 23 24 23 24 28 32 34 33 36 36 38 38 39 29 27 27 25 25 24 24 24 25 25 24 15 13 13 11 10 11 12 14 14 14
24 29 27 31 28 22 22 18 21 23 22 25 24 26 28 31 32 36 35 36 36 35 31 25 25 24 24 23 23 23 24 24 24 20 17 16 15 11 11 12 14 18 17
32 29 29 26 26 24 21 22 21 21 26 30 25 24 27 29 32 33 37 34 33 33 28 25 24 23 24 25 25 25 25 24 23 21 19 20 18 15 13 15 13 19 22
29 29 30 27 24 22 23 24 25 27 26 24 26 26 27 28 31 31 33 33 29 30 29 25 24 23 22 22 24 26 26 26 26 25 22 21 20 19 17 19 19 22 20
31 33 34 34 31 33 31 30 28 27 28 29 28 27 29 30 30 30 31 31 28 29 27 22 22 23 22 19 19 21 23 27 27 24 23 22 21 19 19 18 18 20 18
39 39 39 43 39 37 37 36 36 36 37 35 31 29 29 32 32 32 31 30 29 26 25 23 22 22 20 19 17 18 21 23 26 24 22 21 20 20 19 20 19 18 18
46 47 45 45 43 39 40 42 43 44 43 38 36 34 32 31 30 27 27 28 24 23 22 22 22 22 20 19 17 16 18 21 22 22 20 20 19 19 20 20 20 20 19
Wind_Direction_500mb
301 308 312 320 322 324 325 319 316 309 310 327 311 303 304 314 317 318 323 320 314 309 302 290 284 282 289 292 287 302 291 285 290 293 297 303 301 296 292 287 301 307 315
320 328 327 322 319 317 318 318 305 300 310 321 310 304 303 309 311 311 312 309 304 295 293 294 295 299 298 299 300 298 286 278 282 290 293 293 293 293 295 296 289 283 286
322 319 321 318 319 317 305 302 298 304 313 311 311 303 305 305 306 313 310 306 305 305 307 308 307 306 303 302 299 291 286 280 278 286 291 292 295 297 295 286 288 290 288
322 325 321 317 322 321 309 303 296 307 310 303 297 295 297 304 309 310 308 308 309 310 310 307 307 308 305 302 297 289 286 286 282 278 281 287 289 291 298 297 293 277 269
320 323 320 314 306 315 300 297 310 297 290 290 282 292 304 309 311 311 310 310 311 312 312 315 316 315 312 296 282 287 292 288 286 283 284 286 284 288 293 299 295 290 272
327 320 315 314 309 318 302 299 298 268 294 261 279 303 306 312 310 309 312 315 318 318 318 318 316 314 319 311 302 283 283 288 288 290 289 287 287 290 292 292 292 294 296
332 336 334 328 336 324 308 302 292 292 275 286 304 309 305 306 312 320 319 318 319 320 319 318 316 314 314 309 296 294 293 285 279 278 277 278 284 281 287 286 285 286 282
331 331 336 334 332 329 326 320 308 319 282 308 303 295 303 307 317 320 320 320 319 318 317 318 315 314 317 312 307 301 301 298 292 286 276 276 275 277 276 281 287 279 282
323 324 325 325 327 328 318 311 322 305 299 292 295 301 306 317 325 324 322 320 321 320 318 316 317 318 317 314 302 298 299 297 295 289 278 274 267 267 269 278 281 282 279
324 325 327 331 331 328 317 327 326 294 289 291 303 311 322 329 329 328 329 328 325 324 324 327 330 326 323 322 315 309 305 305 306 303 290 274 266 264 265 263 267 262 269
318 323 332 334 340 326 317 303 276 279 303 307 312 320 331 333 333 336 336 332 331 329 331 336 341 343 338 324 317 315 314 306 306 301 305 306 286 269 264 257 255 266 279
317 322 326 332 322 319 307 285 300 312 307 315 318 326 333 336 338 339 339 342 347 341 341 343 349 336 324 326 327 323 322 317 320 340 343 350 345 330 308 273 268 266 267
317 318 321 324 317 306 297 283 292 309 315 318 325 331 335 339 340 341 344 353 350 350 345 342 328 331 338 339 336 328 325 334 337 332 338 333 324 316 297 267 298 248 274
311 314 320 324 320 285 275 307 320 313 315 323 328 333 338 342 341 343 352 346 345 346 342 339 332 340 347 349 353 4 8 2 357 352 336 322 317 307 310 308 315 341 323
314 317 325 322 310 305 326 322 320 314 321 328 332 337 339 344 344 346 347 339 341 334 326 332 341 351 358 1 7 16 13 10 9 9 5 354 342 351 16 350 322 323 329
313 318 323 314 306 306 303 298 302 309 318 332 332 333 335 341 344 347 337 337 346 342 340 347 355 358 1 1 2 3 3 3 5 6 9 10 14 35 39 17 344 323 310
318 308 317 309 308 318 318 319 322 336 326 329 325 330 337 342 343 346 345 344 351 352 353 353 356 359 359 359 359 357 353 354 355 8 20 30 50 48 28 14 2 349 334
319 311 315 313 315 323 314 315 314 321 326 332 333 335 340 345 345 347 347 351 354 359 358 354 348 355 357 357 358 356 355 354 359 10 21 24 35 47 42 33 22 1 348
311 296 306 299 310 316 311 309 305 310 317 325 331 336 337 340 343 343 338 353 356 355 355 357 355 353 356 359 -0 4 5 8 6 7 8 12 19 36 40 20 11 355 332
302 300 297 296 304 314 311 303 303 307 314 323 324 322 334 339 340 341 348 350 349 351 350 351 358 358 355 -0 3 5 7 9 12 13 1 353 357 2 16 15 357 346 337
304 308 303 301 305 310 309 300 302 309 309 309 320 331 331 334 335 344 342 344 345 346 350 345 352 355 354 357 1 2 3 3 5 3 2 0 355 341 350 342 334 337 331
324 303 299 304 303 304 302 300 301 297 301 307 316 323 322 326 328 329 338 337 338 342 345 340 342 346 350 353 356 358 358 0 1 2 0 1 360 352 352 346 331 342 346
306 321 331 311 303 303 298 297 294 298 308 311 310 310 316 318 325 332 335 340 335 337 341 337 332 335 339 345 346 349 353 358 359 359 0 359 0 360 358 354 344 348 0
293 297 307 305 295 300 297 296 291 290 292 297 305 313 314 314 316 320 325 333 336 338 338 332 330 330 336 339 336 341 349 355 355 354 355 358 356 359 359 353 351 353 355
293 298 302 301 295 280 287 288 288 287 289 291 293 294 303 313 319 311 313 320 324 326 331 329 326 323 325 326 331 332 339 345 347 350 351 351 352 351 353 353 352 355 352
286 286 294 298 295 286 276 283 286 290 290 284 283 286 291 300 306 328 325 323 319 321 319 321 320 319 319 321 321 330 338 337 338 342 348 347 350 348 347 350 348 347 349
Wind_Speed_850mb
39 39 48 55 51 52 53 54 59 56 52 56 40 38 39 34 32 34 35 34 35 39 41 34 31 38 38 43 51 56 54 50 57 63 56 50 46 49 45 33 30 32 33
42 50 57 62 59 51 57 57 58 50 53 41 34 29 30 32 34 38 40 41 39 36 35 39 45 50 57 63 63 63 57 56 56 61 57 57 52 47 45 45 47 49 44
47 53 63 57 60 58 57 59 57 49 45 34 33 34 37 32 37 44 44 37 38 44 49 55 62 64 65 63 58 55 54 54 46 53 62 59 61 58 57 59 55 46 40
51 61 58 52 56 57 59 66 53 43 38 31 31 31 38 44 46 43 43 45 51 58 66 69 66 63 58 50 45 45 49 51 51 55 58 59 55 53 50 48 51 51 47
56 56 53 56 60 68 54 53 53 44 28 33 36 34 37 41 41 43 45 51 61 65 58 54 54 51 47 38 42 45 41 45 46 48 49 50 51 54 50 51 51 43 49
39 48 46 53 46 48 42 59 56 33 32 28 28 30 39 37 39 42 53 60 59 53 53 52 50 50 45 42 38 43 48 48 50 49 50 52 56 51 44 40 38 36 43
54 38 41 49 56 40 50 53 67 46 19 23 30 32 32 36 40 49 53 53 51 51 51 55 55 49 51 51 44 43 43 43 45 47 50 51 48 44 40 41 38 39 38
38 47 54 57 58 66 62 60 36 25 27 30 26 26 29 37 45 51 48 47 48 52 55 53 52 58 56 42 41 44 41 38 33 35 43 48 47 46 41 40 43 45 43
51 57 62 62 70 66 55 41 40 18 17 25 22 29 34 43 48 46 49 53 54 54 56 58 60 52 44 39 42 44 45 43 45 47 47 45 42 46 45 47 48 37 41
61 57 61 68 63 49 39 25 8 16 22 19 26 32 41 45 42 46 50 53 59 60 57 56 46 42 37 36 38 40 44 46 40 33 32 37 45 53 53 53 51 52 56
54 57 69 56 43 28 19 11 16 15 20 24 28 37 41 43 43 44 48 54 51 48 49 45 36 31 35 33 35 35 37 34 38 36 35 25 17 17 20 23 27 30 36
61 65 58 56 39 35 24 27 29 14 20 30 33 35 39 40 39 45 50 48 43 43 38 34 33 30 36 39 23 25 24 24 15 15 13 11 13 14 12 13 17 26 27
53 55 59 54 34 21 22 19 15 22 30 31 32 36 35 36 39 44 51 50 49 38 36 30 27 36 34 25 22 22 19 18 18 15 14 14 12 10 8 9 7 12 14
61 50 54 50 25 16 15 17 23 28 26 31 32 32 32 34 40 44 49 51 49 39 37 35 33 32 27 25 24 19 17 16 17 16 13 14 15 16 12 8 8 5 7
48 46 45 19 10 13 15 19 23 25 30 29 28 30 35 35 37 46 41 44 42 37 36 34 30 29 29 29 26 21 22 21 20 17 15 14 13 12 7 3 6 7 9
37 35 27 15 11 17 22 22 20 25 24 24 26 31 32 34 33 43 38 37 43 35 33 28 28 28 30 30 30 25 24 25 23 18 16 16 12 10 8 7 9 10 10
31 18 22 14 15 19 19 21 22 12 16 24 25 27 29 30 36 41 35 39 40 35 30 25 26 28 29 30 28 26 26 25 23 15 16 16 13 11 10 10 10 7 4
22 17 20 21 22 19 16 18 19 22 29 29 25 29 30 32 36 40 36 38 40 37 32 28 25 27 29 30 29 28 27 26 20 13 14 13 13 16 11 11 10 10 7
20 19 20 22 29 23 20 20 19 20 26 28 25 27 30 32 36 37 35 40 42 39 31 29 26 27 27 26 27 25 26 27 23 12 10 13 12 12 12 11 10 9 12
20 23 19 24 30 27 19 19 21 23 24 23 24 28 32 34 33 36 36 38 38 39 29 27 27 25 25 24 24 24 25 25 24 15 13 13 11 10 11 12 14 14 14
24 29 27 31 28 22 22 18 21 23 22 25 24 26 28 31 32 36 35 36 36 35 31 25 25 24 24 23 23 23 24 24 24 20 17 16 15 11 11 12 14 18 17
32 29 29 26 26 24 21 22 21 21 26 30 25 24 27 29 32 33 37 34 33 33 28 25 24 23 24 25 25 25 25 24 23 21 19 20 18 15 13 15 13 19 22
29 29 30 27 24 22 23 24 25 27 26 24 26 26 27 28 31 31 33 33 29 30 29 25 24 23 22 22 24 26 26 26 26 25 22 21 20 19 17 19 19 22 20
31 33 34 34 31 33 31 30 28 27 28 29 28 27 29 30 30 30 31 31 28 29 27 22 22 23 22 19 19 21 23 27 27 24 23 22 21 19 19 18 18 20 18
39 39 39 43 39 37 37 36 36 36 37 35 31 29 29 32 32 32 31 30 29 26 25 23 22 22 20 19 17 18 21 23 26 24 22 21 20 20 19 20 19 18 18
46 47 45 45 43 39 40 42 43 44 43 38 36 34 32 31 30 27 27 28 24 23 22 22 22 22 20 19 17 16 18 21 22 22 20 20 19 19 20 20 20 20 19
Wind_Direction_850mb
301 308 312 320 322 324 325 319 316 309 310 327 311 303 304 314 317 318 323 320 314 309 302 290 284 282 289 292 287 302 291 285 290 293 297 303 301 296 292 287 301 307 315
320 328 327 322 319 317 318 318 305 300 310 321 310 304 303 309 311 311 312 309 304 295 293 294 295 299 298 299 300 298 286 278 282 290 293 293 293 293 295 296 289 283 286
322 319 321 318 319 317 305 302 298 304 313 311 311 303 305 305 306 313 310 306 305 305 307 308 307 306 303 302 299 291 286 280 278 286 291 292 295 297 295 286 288 290 288
322 325 321 317 322 321 309 303 296 307 310 303 297 295 297 304 309 310 308 308 309 310 310 307 307 308 305 302 297 289 286 286 282 278 281 287 289 291 298 297 293 277 269
320 323 320 314 306 315 300 297 310 297 290 290 282 292 304 309 311 311 310 310 311 312 312 315 316 315 312 296 282 287 292 288 286 283 284 286 284 288 293 299 295 290 272
327 320 315 314 309 318 302 299 298 268 294 261 279 303 306 312 310 309 312 315 318 318 318 318 316 314 319 311 302 283 283 288 288 290 289 287 287 290 292 292 292 294 296
332 336 334 328 336 324 308 302 292 292 275 286 304 309 305 306 312 320 319 318 319 320 319 318 316 314 314 309 296 294 293 285 279 278 277 278 284 281 287 286 285 286 282
331 331 336 334 332 329 326 320 308 319 282 308 303 295 303 307 317 320 320 320 319 318 317 318 315 314 317 312 307 301 301 298 292 286 276 276 275 277 276 281 287 279 282
323 324 325 325 327 328 318 311 322 305 299 292 295 301 306 317 325 324 322 320 321 320 318 316 317 318 317 314 302 298 299 297 295 289 278 274 267 267 269 278 281 282 279
324 325 327 331 331 328 317 327 326 294 289 291 303 311 322 329 329 328 329 328 325 324 324 327 330 326 323 322 315 309 305 305 306 303 290 274 266 264 265 263 267 262 269
318 323 332 334 340 326 317 303 276 279 303 307 312 320 331 333 333 336 336 332 331 329 331 336 341 343 338 324 317 315 314 306 306 301 305 306 286 269 264 257 255 266 279
317 322 326 332 322 319 307 285 300 312 307 315 318 326 333 336 338 339 339 342 347 341 341 343 349 336 324 326 327 323 322 317 320 340 343 350 345 330 308 273 268 266 267
317 318 321 324 317 306 297 283 292 309 315 318 325 331 335 339 340 341 344 353 350 350 345 342 328 331 338 339 336 328 325 334 337 332 338 333 324 316 297 267 298 248 274
311 314 320 324 320 285 275 307 320 313 315 323 328 333 338 342 341 343 352 346 345 346 342 339 332 340 347 349 353 4 8 2 357 352 336 322 317 307 310 308 315 341 323
314 317 325 322 310 305 326 322 320 314 321 328 332 337 339 344 344 346 347 339 341 334 326 332 341 351 358 1 7 16 13 10 9 9 5 354 342 351 16 350 322 323 329
313 318 323 314 306 306 303 298 302 309 318 332 332 333 335 341 344 347 337 337 346 342 340 347 355 358 1 1 2 3 3 3 5 6 9 10 14 35 39 17 344 323 310
318 308 317 309 308 318 318 319 322 336 326 329 325 330 337 342 343 346 345 344 351 352 353 353 356 359 359 359 359 357 353 354 355 8 20 30 50 48 28 14 2 349 334
319 311 315 313 315 323 314 315 314 321 326 332 333 335 340 345 345 347 347 351 354 359 358 354 348 355 357 357 358 356 355 354 359 10 21 24 35 47 42 33 22 1 348
311 296 306 299 310 316 311 309 305 310 317 325 331 336 337 340 343 343 338 353 356 355 355 357 355 353 356 359 -0 4 5 8 6 7 8 12 19 36 40 20 11 355 332
302 300 297 296 304 314 311 303 303 307 314 323 324 322 334 339 340 341 348 350 349 351 350 351 358 358 355 -0 3 5 7 9 12 13 1 353 357 2 16 15 357 346 337
304 308 303 301 305 310 309 300 302 309 309 309 320 331 331 334 335 344 342 344 345 346 350 345 352 355 354 357 1 2 3 3 5 3 2 0 355 341 350 342 334 337 331
324 303 299 304 303 304 302 300 301 297 301 307 316 323 322 326 328 329 338 337 338 342 345 340 342 346 350 353 356 358 358 0 1 2 0 1 360 352 352 346 331 342 346
306 321 331 311 303 303 298 297 294 298 308 311 310 310 316 318 325 332 335 340 335 337 341 337 332 335 339 345 346 349 353 358 359 359 0 359 0 360 358 354 344 348 0
293 297 307 305 295 300 297 296 291 290 292 297 305 313 314 314 316 320 325 333 336 338 338 332 330 330 336 339 336 341 349 355 355 354 355 358 356 359 359 353 351 353 355
293 298 302 301 295 280 287 288 288 287 289 291 293 294 303 313 319 311 313 320 324 326 331 329 326 323 325 326 331 332 339 345 347 350 351 351 352 351 353 353 352 355 352
286 286 294 298 295 286 276 283 286 290 290 284 283 286 291 300 306 328 325 323 319 321 319 321 320 319 319 321 321 330 338 337 338 342 348 347 350 348 347 350 348 347 349